カタログに戻る

FENGYUN 1C DEB

運用中SSO
NORAD 30010·DEBRIS·🇨🇳 China

打ち上げ May 10, 1999 から Taiyuan Satellite Launch Center

Loading…

次のパス (今後24時間)

TLE

最新Source: Space-Track

元期: Sep 14, 2026, 09:22 UTC

1 30010U 99025MK  26257.39044131  .00000110  00000-0  64757-4 0  9991
2 30010  99.0550 103.5968 0073672 137.0019 346.1564 14.25123511 21852

AllMySatでFENGYUN 1C DEBをリアルタイム追跡

Download on the App Store